Weather History for Gainesville, FL

Change the Weather History Date:

Monday, November 25, 2013

  Actual Average Record
Temperature  
Mean Temperature 60 °F 60 °F  
Max Temperature 74 °F 72 °F 85 °F (1955)
Min Temperature 45 °F 49 °F 20 °F (1970)
Degree Days  
Heating Degree Days 5 6  
Month to date heating degree days 30 101  
Since 1 July heating degree days 45 128  
Cooling Degree Days 0 1  
Month to date cooling degree days 81 62  
Year to date cooling degree days 2822 2612  
Growing Degree Days 10 (Base 50)    
Moisture  
Dew Point 49 °F    
Average Humidity 65    
Maximum Humidity 84    
Minimum Humidity 46    
Precipitation  
Precipitation 0.00 in 0.07 in 1.67 in (1972)
Month to date precipitation 1.55 1.71  
Year to date precipitation 41.53 44.58  
Snow  
Snow 0.00 in 0.00 in 0.00 in ()
Month to date snowfall 0.0 0.0  
Since 1 July snowfall 0.0 0.0  
Since 1 September snowfall 0.0 0.0  
Snow Depth 0.00 in    
Sea Level Pressure  
Sea Level Pressure 30.24 in    
Wind  
Wind Speed 9 mph (ENE)    
Max Wind Speed 20 mph    
Max Gust Speed 25 mph    
Visibility 10 miles    
Events      
T = Trace of Precipitation, MM = Missing Value Source: NWS Daily Summary

Daily Weather History Graph

Daily Weather History Graph

Search for Another Location

Airport:

Trip Planner

Search our weather history database for the weather conditions in past years. The results will help you decide how hot, cold, wet, or windy it might be!

Date:

Astronomy

Nov. 25, 2013 Rise Set
Actual Time 7:02 AM EST 5:30 PM EST
Civil Twilight 6:36 AM EST 5:55 PM EST
Nautical Twilight 6:07 AM EST 6:25 PM EST
Astronomical Twilight 5:38 AM EST 6:53 PM EST
Moon No Moon Rise 12:35 PM EST (11/25)
Length of Visible Light 11h 19m
Length of Day
10h 28m
Waning Gibbous, 51% of the Moon is Illuminated
Nov 25
Waning Gibbous
Nov 25
Last Quarter
Dec 2
New
Dec 9
First Quarter
Dec 17
Full

Hourly Weather History & Observations

Time (EST) Temp. Windchill Dew Point Humidity Pressure Visibility Wind Dir Wind Speed Gust Speed Precip Events Conditions
12:53 AM 46.0 °F 41.9 °F 39.9 °F 79% 30.31 in 10.0 mi NNE 8.1 mph - N/A   Overcast
1:53 AM 46.9 °F - 39.9 °F 77% 30.31 in 10.0 mi NNE 8.1 mph - N/A   Overcast
2:53 AM 48.0 °F - 41.0 °F 77% 30.29 in 10.0 mi NNE 10.4 mph - N/A   Mostly Cloudy
3:53 AM 46.9 °F - 41.0 °F 80% 30.29 in 10.0 mi NNE 8.1 mph - N/A   Clear
4:53 AM 46.0 °F 41.9 °F 41.0 °F 83% 30.28 in 10.0 mi NNE 8.1 mph - N/A   Clear
5:53 AM 46.0 °F 41.9 °F 41.0 °F 83% 30.28 in 10.0 mi NNE 8.1 mph - N/A   Clear
6:53 AM 46.0 °F 42.5 °F 41.0 °F 83% 30.30 in 10.0 mi North 6.9 mph - N/A   Partly Cloudy
7:53 AM 48.9 °F - 43.0 °F 80% 30.30 in 10.0 mi NNE 9.2 mph - N/A   Partly Cloudy
8:53 AM 53.1 °F - 46.0 °F 77% 30.32 in 10.0 mi NE 11.5 mph - N/A   Clear
9:53 AM 60.1 °F - 48.0 °F 64% 30.31 in 10.0 mi NE 11.5 mph - N/A   Scattered Clouds
10:53 AM 68.0 °F - 53.1 °F 59% 30.30 in 10.0 mi ENE 11.5 mph - N/A   Clear
11:53 AM 70.0 °F - 54.0 °F 57% 30.27 in 10.0 mi East 11.5 mph - N/A   Partly Cloudy
12:53 PM 70.0 °F - 52.0 °F 53% 30.24 in 10.0 mi East 13.8 mph - N/A   Mostly Cloudy
1:53 PM 73.0 °F - 52.0 °F 48% 30.21 in 10.0 mi East 12.7 mph - N/A   Mostly Cloudy
2:53 PM 71.1 °F - 54.0 °F 55% 30.20 in 10.0 mi East 15.0 mph 20.7 mph N/A   Overcast
3:53 PM 70.0 °F - 53.1 °F 55% 30.19 in 10.0 mi East 9.2 mph - N/A   Partly Cloudy
4:53 PM 69.1 °F - 53.1 °F 57% 30.19 in 10.0 mi ESE 11.5 mph - N/A   Clear
5:53 PM 66.9 °F - 54.0 °F 63% 30.20 in 10.0 mi East 10.4 mph - N/A   Overcast
6:53 PM 64.0 °F - 54.0 °F 70% 30.21 in 10.0 mi ENE 4.6 mph - N/A   Scattered Clouds
7:53 PM 64.0 °F - 55.0 °F 73% 30.20 in 10.0 mi East 8.1 mph - N/A   Overcast
8:53 PM 63.0 °F - 55.9 °F 78% 30.17 in 10.0 mi East 10.4 mph - N/A   Scattered Clouds
9:53 PM 63.0 °F - 57.0 °F 81% 30.16 in 10.0 mi East 5.8 mph - N/A   Clear
10:53 PM 62.1 °F - 57.0 °F 84% 30.13 in 10.0 mi East 6.9 mph - N/A   Clear
11:53 PM 61.0 °F - 57.0 °F 87% 30.12 in 10.0 mi East 4.6 mph - N/A   Partly Cloudy